AirNav   Pilot Hours Calculator
 
 1460 users online  

5I2 Flora Municipal Airport
Flora, Indiana, USA

GOING TO FLORA?


FAA INFORMATION EFFECTIVE 07 NOVEMBER 2019

Location

FAA Identifier: 5I2
Lat/Long: 40-32-23.1300N 086-32-53.9990W
40-32.385500N 086-32.899983W
40.5397583,-86.5483331
(estimated)
Elevation: 710 ft. / 216 m (estimated)
Variation: 02W (1985)
From city: 2 miles SW of FLORA, IN
Time zone: UTC -5 (UTC -4 during Daylight Saving Time)
Zip code: 46929

Airport Operations

Airport use: Open to the public
Activation date: 02/1967
Control tower: no
ARTCC: CHICAGO CENTER
FSS: TERRE HAUTE FLIGHT SERVICE STATION
NOTAMs facility: HUF (NOTAM-D service available)
Attendance: UNATNDD
Wind indicator: lighted
Segmented circle: no
Lights: SS-SR

Airport Communications

CTAF: 122.9
WX AWOS-3P at GGP (13 nm NE): 118.5 (574-737-7310)
WX AWOS-3P at MCX (14 nm NW): 124.05 (574-583-0531)
WX AWOS-3 at FKR (16 nm S): 124.325 (765-654-0328)
WX ASOS at LAF (19 nm SW): PHONE 765-743-9687

Nearby radio navigation aids

VOR radial/distance  VOR name  Freq  Var
GUSr253/19.1GRISSOM VORTAC108.4502W
OKKr277/22.4KOKOMO VORTAC113.5005W
BVTr091/23.8BOILER VORTAC115.1001E
MZZr277/39.7MARION VOR/DME108.6003W

 
NDB name  Hdg/Dist  Freq  Var  ID
CRAWFORDSVILLE031/37.538804WCFJ -.-. ..-. .---

Airport Services

Parking: tiedowns
Airframe service: NONE
Powerplant service: NONE
Bottled oxygen: NONE
Bulk oxygen: NONE

Runway Information

Runway 9/27

Dimensions: 2143 x 93 ft. / 653 x 28 m
Surface: turf, in good condition
Runway edge lights: low intensity
RUNWAY 9  RUNWAY 27
Latitude: 40-32.418833N40-32.418833N
Longitude: 086-33.151833W086-32.681167W
Elevation: 710.0 ft.710.0 ft.
Traffic pattern: leftleft
Runway end identifier lights: nono
Obstructions: 15 ft. road, 285 ft. from runway, 20:1 slope to clear10 ft. crops, 200 ft. from runway, 20:1 slope to clear

Airport Ownership and Management from official FAA records

Ownership: Publicly-owned
Owner: TOWN OF FLORA
4 EAST MAIN ST
FLORA, IN 46929
Phone 574-967-4844
Manager: JORETTA TINSMAN
4 EAST MAIN ST
FLORA, IN 46929
Phone (574) 967-4844

Airport Operational Statistics

Aircraft based on the field: 7
Single engine airplanes: 4
Ultralights: 3
    
Aircraft operations: avg 38/week *
75% local general aviation
25% transient general aviation
* for 12-month period ending 31 December 2016

Additional Remarks

FOR CD CTC CHICAGO ARTCC AT 630-906-8921.

Instrument Procedures

There are no published instrument procedures at 5I2.

Some nearby airports with instrument procedures:

KGGP - Logansport/Cass County Airport (13 nm NE)
KMCX - White County Airport (14 nm NW)
KFKR - Frankfort Municipal Airport (16 nm S)
KGUS - Grissom Air Reserve Base (19 nm E)
KLAF - Purdue University Airport (19 nm SW)
 
Loc | Ops | Rwys | IFR | FBO | Links
Com | Nav | Svcs | Stats | Notes
Area around 5I2 (Flora Municipal Airport)
 
Road maps at: MapQuest Bing Google
 
Aerial photo
WARNING: Photo may not be current or correct
Aerial photo of 5I2 (Flora Municipal Airport)
Do you have a better or more recent aerial photo of Flora Municipal Airport that you would like to share? If so, please send us your photo.

 
Sectional chart

 
Airport distance calculator
Flying to Flora Municipal Airport? Find the distance to fly.

From to 5I2

Sunrise and sunset
Times for 12-Nov-2019
 Local
(UTC-5)
 Zulu
(UTC)
Morning civil twilight07:0112:01
Sunrise07:3012:30
Sunset17:3122:31
Evening civil twilight18:0023:00

Current date and time
Zulu (UTC)  12-Nov-2019 19:24:56
Local (UTC-5)  12-Nov-2019 14:24:56
 
METAR
KGGP 
13nm NE 
121855Z AUTO 31005KT 10SM SCT027 M07/M12 A3045 RMK AO2
KMCX 
14nm NW 
121855Z AUTO 31012KT 10SM CLR M08/M14 A3046 RMK AO2 T10801145
KFKR 
16nm S 
121855Z AUTO 30008KT 10SM CLR M07/M13 A3046 RMK AO2 T10661128
KGUS 
19nm E 
121856Z 30012KT 10SM SCT015 OVC022 M06/M10 A3041 RMK AO2A SNB01E11 CIG 015V022 CIG 016 RWY05 SLP315 P0000 T10641105 $
KLAF 
20nm W 
121854Z 31009KT 10SM CLR M08/M16 A3048 RMK AO2 SLP330 T10781156
KOKK 
22nm E 
121856Z AUTO 30010KT 9SM FEW021 M06/M11 A3042 RMK AO2 SNE53 SLP319 P0000 T10561106 FZRANO
TAF
KGUS 
19nm E 
121800Z 1218/1317 33012KT 9999 BKN014 620145 QNH3039INS BECMG 1219/1220 31009KT 9999 SCT050 QNH3040INS BECMG 1223/1224 29006KT 9999 SKC QNH3034INS BECMG 1310/1311 18009KT 9999 BKN160 QNH3024INS BECMG 1315/1316 18012G18KT 9999 BKN120 QNH3020INS TXM07/1218Z TNM11/1306Z
KLAF 
20nm W 
121720Z 1218/1318 32011KT P6SM SKC FM130000 VRB04KT P6SM FEW250 FM131500 18010G19KT P6SM BKN250
NOTAMs
Click for the latest NOTAMs
NOTAMs are issued by the DoD/FAA and will open in a separate window not controlled by AirNav.

 

 
 

Would you like to see your business listed on this page?

 If your business provides an interesting product or service to pilots, flight crews, aircraft, or users of the Flora Municipal Airport, you should consider listing it here.  To start the listing process, click on the button below
 
Add a business
 

Other Pages about Flora Municipal Airport

Update a link
 
Copyright © AirNav, LLC. All rights reserved. Privacy Policy  Contact